Hourly Weather Munasovo

Today, 20 September, Monday

Time Temperature Precipitation Wind Pressure Humidity
00:00 +1°C° 0 mm 4 mps 745 mmHg 64%
01:00 +1°C° 0 mm 4 mps 746 mmHg 64%
02:00 +1°C° 0 mm 4 mps 746 mmHg 64%
03:00 +1°C° 0 mm 4 mps 746 mmHg 64%
04:00 +1°C° 0 mm 4 mps 747 mmHg 64%
05:00 +1°C° 0 mm 4 mps 747 mmHg 63%
06:00 +1°C° 0 mm 4 mps 747 mmHg 63%
07:00 +1°C° 0 mm 4 mps 747 mmHg 62%
08:00 +3°C° 0 mm 4 mps 748 mmHg 61%
09:00 +3°C° 0 mm 4 mps 748 mmHg 59%
10:00 +4°C° 0 mm 4 mps 748 mmHg 57%
11:00 +5°C° 0 mm 4 mps 749 mmHg 56%
12:00 +5°C° 0 mm 4 mps 749 mmHg 55%
13:00 +6°C° 0 mm 4 mps 749 mmHg 54%
14:00 +6°C° 0 mm 4 mps 749 mmHg 55%
15:00 +7°C° 0 mm 3 mps 749 mmHg 56%
16:00 +5°C° 0 mm 3 mps 750 mmHg 58%
17:00 +5°C° 0 mm 3 mps 750 mmHg 60%
18:00 +4°C° 0 mm 3 mps 750 mmHg 62%
19:00 +4°C° 0 mm 2 mps 750 mmHg 65%
20:00 +5°C° 0 mm 2 mps 750 mmHg 63%
21:00 +5°C° 0 mm 2 mps 751 mmHg 62%
22:00 +5°C° 0 mm 2 mps 751 mmHg 60%
23:00 +6°C° 0 mm 1 mps 751 mmHg 62%

Tomorrow, 21 September, Tuesday

Time Temperature Precipitation Wind Pressure Humidity
00:00 +5°C° 0 mm 1 mps 751 mmHg 63%
01:00 +5°C° 0 mm 1 mps 751 mmHg 64%
02:00 +4°C° 0 mm 1 mps 751 mmHg 69%
03:00 +3°C° 0 mm 1 mps 751 mmHg 74%
04:00 +2°C° 0 mm 1 mps 751 mmHg 80%
05:00 +2°C° 0 mm 1 mps 751 mmHg 79%
06:00 +2°C° 0 mm 1 mps 751 mmHg 78%
07:00 +3°C° 0 mm 1 mps 751 mmHg 78%
08:00 +4°C° 0 mm 1 mps 751 mmHg 70%
09:00 +6°C° 0 mm 1 mps 751 mmHg 61%
10:00 +8°C° 0 mm 1 mps 751 mmHg 53%
11:00 +9°C° 0 mm 1 mps 750 mmHg 50%
12:00 +10°C° 0 mm 1 mps 750 mmHg 47%
13:00 +10°C° 0 mm 0 mps 750 mmHg 44%
14:00 +10°C° 0 mm 0 mps 749 mmHg 44%
15:00 +11°C° 0 mm 1 mps 749 mmHg 43%
16:00 +11°C° 0 mm 1 mps 749 mmHg 43%
17:00 +10°C° 0 mm 1 mps 748 mmHg 50%
18:00 +8°C° 0 mm 1 mps 748 mmHg 56%
19:00 +6°C° 0 mm 1 mps 748 mmHg 62%
20:00 +6°C° 0 mm 1 mps 748 mmHg 64%
21:00 +4°C° 0 mm 0 mps 748 mmHg 66%
22:00 +4°C° 0 mm 0 mps 748 mmHg 68%
23:00 +3°C° 0 mm 0 mps 748 mmHg 70%

Day after tomorrow, 22 September, Wednesday

Time Temperature Precipitation Wind Pressure Humidity
00:00 +3°C° 0 mm 0 mps 748 mmHg 72%
01:00 +2°C° 0 mm 0 mps 748 mmHg 74%
02:00 +2°C° 0 mm 0 mps 748 mmHg 76%
03:00 +2°C° 0 mm 0 mps 748 mmHg 78%
04:00 +1°C° 0 mm 0 mps 748 mmHg 80%
05:00 +2°C° 0 mm 0 mps 748 mmHg 79%
06:00 +2°C° 0 mm 0 mps 748 mmHg 77%
07:00 +2°C° 0 mm 0 mps 748 mmHg 76%
08:00 +4°C° 0 mm 0 mps 748 mmHg 69%
09:00 +6°C° 0 mm 0 mps 748 mmHg 62%
10:00 +9°C° 0 mm 1 mps 748 mmHg 55%
11:00 +10°C° 0 mm 1 mps 748 mmHg 52%
12:00 +11°C° 0 mm 1 mps 747 mmHg 48%
13:00 +12°C° 0 mm 2 mps 747 mmHg 45%
14:00 +12°C° 0 mm 1 mps 747 mmHg 45%
15:00 +12°C° 0 mm 1 mps 747 mmHg 45%
16:00 +12°C° 0 mm 1 mps 747 mmHg 44%
17:00 +11°C° 0 mm 1 mps 747 mmHg 50%
18:00 +9°C° 0 mm 1 mps 748 mmHg 56%
19:00 +7°C° 0 mm 1 mps 748 mmHg 63%
20:00 +7°C° 0 mm 1 mps 748 mmHg 65%
21:00 +6°C° 0 mm 1 mps 748 mmHg 67%
22:00 +6°C° 0 mm 1 mps 749 mmHg 69%
23:00 +5°C° 0 mm 1 mps 749 mmHg 72%

23 September, Thursday

Time Temperature Precipitation Wind Pressure Humidity
00:00 +5°C° 0 mm 1 mps 749 mmHg 74%
01:00 +4°C° 0 mm 1 mps 749 mmHg 77%
02:00 +4°C° 0 mm 1 mps 749 mmHg 79%
03:00 +4°C° 0 mm 1 mps 749 mmHg 80%
04:00 +3°C° 0 mm 1 mps 750 mmHg 82%
05:00 +3°C° 0 mm 2 mps 750 mmHg 81%
06:00 +3°C° 0 mm 2 mps 750 mmHg 80%
07:00 +3°C° 0 mm 2 mps 750 mmHg 79%
08:00 +5°C° 0 mm 3 mps 750 mmHg 71%
09:00 +8°C° 0 mm 3 mps 751 mmHg 62%
10:00 +10°C° 0 mm 4 mps 751 mmHg 54%
11:00 +11°C° 0 mm 4 mps 751 mmHg 50%
12:00 +13°C° 0 mm 4 mps 750 mmHg 47%
13:00 +14°C° 0 mm 4 mps 750 mmHg 43%
14:00 +14°C° 0 mm 4 mps 750 mmHg 44%
15:00 +14°C° 0 mm 3 mps 750 mmHg 45%
16:00 +14°C° 0 mm 3 mps 750 mmHg 46%
17:00 +12°C° 0 mm 3 mps 750 mmHg 53%
18:00 +10°C° 0 mm 3 mps 750 mmHg 61%
19:00 +8°C° 0 mm 2 mps 750 mmHg 68%
20:00 +7°C° 0 mm 2 mps 750 mmHg 69%
21:00 +7°C° 0 mm 2 mps 750 mmHg 70%
22:00 +6°C° 0 mm 2 mps 750 mmHg 71%
23:00 +6°C° 0 mm 2 mps 750 mmHg 71%

24 September, Friday

Time Temperature Precipitation Wind Pressure Humidity
00:00 +7°C° 0 mm 1 mps 750 mmHg 70%
01:00 +7°C° 0 mm 1 mps 750 mmHg 70%
02:00 +7°C° 0 mm 1 mps 750 mmHg 70%
03:00 +7°C° 0 mm 1 mps 750 mmHg 70%
04:00 +7°C° 0 mm 1 mps 750 mmHg 71%
05:00 +7°C° 0 mm 1 mps 750 mmHg 69%
06:00 +8°C° 0 mm 1 mps 750 mmHg 67%
07:00 +8°C° 0 mm 1 mps 750 mmHg 65%
08:00 +10°C° 0 mm 1 mps 750 mmHg 60%
09:00 +11°C° 0 mm 1 mps 750 mmHg 55%
10:00 +13°C° 0 mm 2 mps 750 mmHg 50%
11:00 +14°C° 0 mm 2 mps 750 mmHg 47%
12:00 +14°C° 0 mm 3 mps 749 mmHg 44%
13:00 +16°C° 0 mm 3 mps 749 mmHg 42%
14:00 +16°C° 0 mm 3 mps 749 mmHg 43%
15:00 +16°C° 0 mm 3 mps 748 mmHg 44%
16:00 +16°C° 0 mm 3 mps 748 mmHg 45%
17:00 +13°C° 0 mm 3 mps 748 mmHg 50%
18:00 +11°C° 0 mm 3 mps 748 mmHg 55%
19:00 +10°C° 0 mm 3 mps 747 mmHg 60%
20:00 +9°C° 0 mm 2 mps 747 mmHg 60%
21:00 +8°C° 0 mm 2 mps 747 mmHg 61%
22:00 +8°C° 0 mm 2 mps 747 mmHg 61%
23:00 +7°C° 0 mm 2 mps 746 mmHg 60%

25 September, Saturday

Time Temperature Precipitation Wind Pressure Humidity
00:00 +7°C° 0 mm 2 mps 746 mmHg 59%
01:00 +8°C° 0 mm 1 mps 746 mmHg 58%
02:00 +7°C° 0 mm 2 mps 745 mmHg 57%
03:00 +6°C° 0 mm 2 mps 745 mmHg 55%
04:00 +6°C° 0 mm 2 mps 744 mmHg 54%
05:00 +7°C° 0 mm 2 mps 744 mmHg 52%
06:00 +7°C° 0 mm 2 mps 743 mmHg 49%
07:00 +8°C° 0 mm 3 mps 743 mmHg 46%
08:00 +10°C° 0 mm 4 mps 742 mmHg 41%
09:00 +12°C° 0 mm 5 mps 742 mmHg 36%
10:00 +14°C° 0 mm 6 mps 741 mmHg 31%
11:00 +15°C° 0 mm 7 mps 741 mmHg 31%
12:00 +15°C° 0 mm 7 mps 740 mmHg 30%
13:00 +16°C° 0 mm 8 mps 740 mmHg 29%
14:00 +16°C° 0 mm 8 mps 739 mmHg 29%
15:00 +16°C° 0 mm 7 mps 739 mmHg 30%
16:00 +17°C° 0 mm 7 mps 739 mmHg 30%
17:00 +15°C° 0.6 mm 7 mps 739 mmHg 46%
18:00 +12°C° 0.6 mm 7 mps 739 mmHg 63%
19:00 +10°C° 0.6 mm 6 mps 739 mmHg 79%
20:00 +10°C° 0.4 mm 6 mps 738 mmHg 79%
21:00 +9°C° 0.4 mm 5 mps 738 mmHg 79%
22:00 +10°C° 0.4 mm 4 mps 737 mmHg 79%
23:00 +10°C° 0 mm 3 mps 737 mmHg 80%
Show more

We Need Your Consent

Meteoprog and our Service Providers may store and access personal data such as cookies, device identifiers or other similar technologies on your device and process such data to personalise content and ads, as well as provide social media features and to analyse the traffic.

  • Store and/or access information on your device

    Cookies, device identifiers or other information can be stored or accessed on your device for the purposes indicated above.

  • Personalised ads and content, ad and content measurement, audience insights, and products development

    Ads and content can be personalised based on a profile. More data can be added to better personalise ads and content. Ad and content performance can be measured. Insights about the audience who saw the ads and content can be derived. Such data can be used to develop or improve user’s experience, systems and software.

By clicking ‘I Agree’ you will allow the use of indicated cookies, device identifiers, web beacons or other similar technologies. Your settings can be changed in the browser on your device.

For certain purposes, legitimate interests may be relied on, rather than consent. You can read more about this in our Privacy and Cookie Policy.